Lapse_Rate
6.0 6.5 6.5 6.5 6.5 6.5 6.5 6.5 6.5 6.5 6.5 6.5 6.5 6.5 6.5 6.4 6.3 6.3 6.2 6.2 5.9 5.8 5.7 6.1 5.8 5.3 3.1 3.2 3.3 2.9 3.3 3.2 3.1 2.7 3.6 4.4 4.5 4.1 3.7 4.8 5.2 5.2 5.1 4.3
6.5 6.5 6.5 6.5 6.5 6.5 6.5 6.5 6.5 6.5 6.5 6.5 6.5 6.5 6.5 6.5 6.3 5.7 5.2 4.5 4.6 5.1 5.5 5.7 5.6 4.8 3.1 3.6 3.1 3.2 3.3 3.9 3.6 3.9 4.1 3.5 3.8 3.9 3.9 4.2 4.2 4.5 5.6 4.8
6.5 6.5 6.5 6.5 6.5 6.5 6.5 6.5 6.5 6.5 6.5 6.5 6.5 6.5 6.5 6.5 6.3 6.2 6.1 5.6 5.9 5.9 5.9 6.2 5.4 4.9 3.2 2.5 2.5 3.5 3.3 3.6 4.1 4.2 4.6 4.0 3.5 3.2 4.1 4.4 4.8 4.7 4.7 4.1
6.5 6.5 6.5 6.5 6.5 6.5 6.5 6.5 6.5 6.5 6.5 6.5 6.5 6.5 6.5 6.5 6.5 6.5 6.1 6.7 7.1 6.9 6.9 6.5 5.2 4.3 3.7 1.7 2.7 3.4 3.2 3.3 3.9 3.9 4.9 5.2 5.5 4.8 4.5 4.6 4.3 4.1 4.6 4.8
6.5 6.5 6.5 6.5 6.5 6.5 6.5 6.5 6.5 6.5 6.5 6.5 6.5 6.5 6.5 6.5 6.5 6.5 6.5 6.7 7.2 7.5 7.6 6.6 4.9 4.3 4.3 3.0 2.0 2.3 2.3 3.1 3.8 4.1 4.6 4.9 5.4 4.6 4.1 3.9 4.0 4.8 4.1 5.4
6.5 6.4 6.5 6.5 6.5 6.5 6.5 6.5 6.5 6.5 6.5 6.5 6.5 6.5 6.5 6.5 6.5 6.5 6.5 6.9 7.2 7.3 6.7 6.3 4.8 4.1 2.7 1.5 1.7 2.4 2.7 2.7 3.5 4.0 3.9 4.9 4.8 4.6 4.0 3.6 4.6 4.7 4.7 5.0
6.5 6.5 6.5 6.4 6.5 6.5 6.5 6.5 6.5 6.5 6.5 6.5 6.5 6.5 6.5 6.5 6.5 6.5 6.5 6.8 7.2 7.2 7.1 5.6 5.1 3.5 2.3 1.7 1.5 2.3 3.0 3.1 3.4 3.6 4.0 4.9 4.8 4.5 4.1 3.5 4.0 5.4 5.7 5.4
6.5 6.5 6.5 6.5 6.5 6.5 6.5 6.5 6.5 6.5 6.5 6.5 6.5 6.5 6.5 6.5 6.4 6.9 7.1 7.2 7.4 7.4 7.4 5.0 4.9 4.1 2.9 2.9 2.5 2.9 3.1 3.5 3.5 3.4 3.8 4.5 4.3 4.4 5.0 4.8 4.8 5.0 6.2 6.2
6.5 6.5 6.5 6.5 6.5 6.5 6.5 6.5 6.5 6.5 6.5 6.5 6.5 6.5 6.5 6.5 6.5 6.6 6.7 7.0 7.0 7.3 7.2 5.0 3.9 3.8 3.1 2.7 2.8 3.1 3.3 3.3 3.7 3.7 4.3 4.0 4.6 5.0 4.9 5.1 4.8 5.4 6.1 7.0
6.5 6.5 6.5 6.5 6.6 6.6 6.5 6.5 6.5 6.5 6.5 6.5 6.5 6.5 6.5 6.5 6.5 6.5 6.5 6.6 6.8 7.1 6.6 6.7 4.3 3.8 2.9 2.6 2.6 2.5 3.1 3.7 3.2 3.6 4.0 4.1 3.9 4.2 4.8 5.1 5.3 5.6 6.0 6.6
6.5 6.5 6.5 6.5 6.5 6.5 6.5 6.5 6.5 6.5 6.5 6.5 6.5 6.5 6.5 6.5 6.5 6.5 6.5 6.8 6.9 6.8 6.4 6.0 3.8 4.2 4.2 4.4 3.8 3.5 3.2 3.7 3.7 3.6 3.4 3.6 3.9 4.4 4.8 5.3 5.4 4.9 6.1 6.8
6.5 6.5 6.5 6.5 6.5 6.5 6.5 6.5 6.5 6.5 6.5 6.5 6.5 6.5 6.5 6.5 6.5 6.5 6.6 6.8 7.0 7.0 6.2 5.3 5.3 5.4 5.4 5.3 5.0 4.8 4.9 4.8 4.3 5.0 4.2 5.3 5.8 5.7 4.7 3.9 4.2 5.3 5.8 6.1
6.5 6.5 6.5 6.5 6.5 6.5 6.5 6.5 6.5 6.5 6.5 6.5 6.5 6.5 6.5 6.5 6.5 6.6 6.6 6.7 7.1 7.2 6.9 6.3 5.7 5.5 5.5 5.3 5.0 4.3 4.5 4.6 4.8 4.7 5.9 6.0 5.8 4.8 4.3 4.3 4.6 4.6 5.1 5.3
6.5 6.5 6.5 6.5 6.5 6.5 6.5 6.5 6.5 6.5 6.5 6.5 6.5 6.5 6.5 6.5 6.5 6.5 6.6 6.9 7.1 7.1 7.1 6.7 6.0 4.9 4.9 5.7 5.7 5.3 5.0 5.1 5.5 5.5 5.3 5.9 6.4 5.4 4.7 5.2 5.1 5.4 4.9 4.5
6.5 6.5 6.5 6.5 6.5 6.5 6.5 6.5 6.5 6.5 6.5 6.5 6.5 6.5 6.5 6.5 6.5 6.6 6.7 6.9 7.1 7.1 7.1 6.8 6.5 6.1 4.4 5.6 5.4 4.6 4.1 3.8 3.9 4.7 3.7 2.7 3.5 5.1 5.0 4.3 4.6 4.7 4.6 4.5
6.5 6.5 6.5 6.5 6.5 6.5 6.5 6.5 6.5 6.5 6.5 6.5 6.5 6.5 6.5 6.6 6.9 6.7 6.8 7.0 6.9 7.0 6.9 6.7 5.8 5.6 4.9 3.1 3.7 2.9 2.9 2.6 2.7 2.7 2.8 3.1 3.3 2.5 2.5 2.0 1.8 2.0 1.8 2.0
6.5 6.5 6.5 6.5 6.5 6.5 6.5 6.5 6.5 6.5 6.5 6.5 6.5 6.5 6.5 6.5 6.5 6.7 6.8 6.8 6.8 6.6 5.9 5.2 5.0 4.3 3.4 2.8 2.6 2.8 2.7 2.0 1.9 1.8 1.7 1.5 1.5 1.4 1.5 1.6 1.5 1.4 1.0 1.0
6.5 6.5 6.5 6.5 6.5 6.5 6.5 6.5 6.5 6.5 6.5 6.5 6.5 6.5 6.5 6.3 6.2 6.7 6.4 6.3 5.8 5.3 4.4 3.6 3.5 3.1 3.0 2.8 2.5 2.3 2.5 2.7 2.4 2.4 2.3 2.1 1.7 1.1 0.6 0.3 0.1 -0.0 0.5 0.6
6.3 6.5 6.5 6.5 6.5 6.5 6.5 6.5 6.5 6.5 6.5 6.5 6.5 6.5 6.2 5.9 6.1 6.5 6.1 5.5 4.9 4.6 4.4 4.2 3.2 2.4 1.7 1.7 2.3 1.7 1.2 2.0 1.9 1.8 1.6 1.7 1.6 1.3 1.2 0.9 0.7 1.0 0.7 -0.4
6.5 6.5 6.5 6.5 6.5 6.5 6.5 6.5 5.9 6.4 6.5 6.3 6.3 6.5 6.4 6.2 6.5 6.5 4.9 4.2 3.7 3.5 3.5 3.0 3.0 2.8 2.4 1.8 1.2 0.4 0.9 1.0 1.1 1.5 0.9 0.9 0.7 0.3 0.1 -0.1 -0.2 0.1 0.2 0.2
6.5 6.5 6.5 6.5 6.5 6.5 6.5 6.0 5.4 6.5 6.5 5.5 5.5 5.8 6.0 6.5 5.3 4.8 4.3 3.2 2.7 2.1 1.8 1.4 1.0 1.1 1.2 2.1 2.3 2.2 2.4 1.9 1.6 1.1 0.7 0.5 0.1 -0.1 -0.4 -0.3 -0.5 -0.6 -0.7 -0.6
6.5 6.5 6.5 6.5 6.5 6.5 5.2 6.2 6.5 6.0 5.0 4.1 4.2 4.2 4.4 4.1 4.6 4.4 3.8 3.6 2.6 2.0 1.7 1.5 1.1 0.7 0.6 0.3 0.7 0.9 1.2 1.3 0.9 1.1 0.7 0.2 0.1 0.3 0.3 -0.1 0.0 0.0 0.3 0.3
6.5 6.5 6.5 6.5 6.5 5.7 3.8 6.0 3.9 3.2 3.4 3.8 3.4 3.0 3.1 3.3 3.6 3.9 3.7 3.5 2.6 2.3 1.7 1.5 0.9 0.6 0.1 0.2 0.4 0.6 0.5 0.8 0.7 0.5 0.3 0.5 0.4 0.8 1.7 1.0 0.8 1.6 1.7 1.4
6.5 5.4 6.5 6.5 6.5 5.8 3.3 2.9 3.5 3.0 3.4 2.9 3.3 2.7 3.0 3.4 3.4 3.4 3.1 2.8 2.6 2.3 2.0 1.5 1.3 0.6 0.3 0.2 -0.0 0.2 0.2 0.1 0.3 0.1 -0.5 -0.5 -0.1 -0.2 0.4 1.4 1.8 1.8 2.3 2.8
5.8 6.0 6.5 6.5 6.1 4.8 3.2 1.8 2.3 2.3 3.1 2.4 2.2 2.3 2.7 3.3 3.1 3.0 2.5 2.2 2.2 2.2 2.0 1.8 1.5 1.3 0.8 0.4 -0.1 -0.4 -0.1 0.2 -0.0 -0.3 -0.5 -0.8 -0.9 0.2 0.2 -0.7 1.2 1.3 1.8 2.8
5.0 6.5 6.5 6.5 4.1 4.6 4.2 1.5 1.5 2.2 2.2 2.2 2.3 2.8 3.1 3.2 2.8 2.7 2.3 2.0 1.9 2.1 1.9 2.1 1.8 1.7 1.5 1.0 0.6 0.5 0.6 0.7 1.2 1.2 0.7 0.9 0.0 -0.2 -0.2 -0.2 0.1 2.4 3.2 3.4
Wind_Speed
3 4 3 6 5 3 3 3 8 7 12 7 14 18 20 22 15 16 15 16 15 16 18 15 15 12 10 12 12 12 12 10 8 6 6 6 7 5 3 5 20 22 22 22
1 3 6 5 3 2 4 7 10 11 7 5 13 21 21 17 8 6 8 9 12 14 14 14 14 13 11 14 15 13 13 12 10 8 6 3 5 6 8 8 10 12 17 19
4 2 5 3 1 3 5 6 4 9 8 7 7 8 3 2 3 2 2 7 9 12 15 16 15 15 10 14 14 15 14 13 12 12 6 3 3 2 4 7 9 11 19 20
3 3 3 1 5 7 6 7 10 8 4 2 5 6 6 4 7 4 11 13 16 15 15 15 15 15 12 14 13 13 13 13 13 14 12 15 10 8 5 9 8 11 19 16
5 0 1 2 4 5 8 5 5 4 4 5 3 4 7 3 5 11 15 16 17 16 18 19 15 14 14 11 13 14 14 13 15 14 16 13 13 9 7 8 12 13 13 16
6 1 2 5 4 8 4 4 3 2 2 4 5 4 5 2 7 19 20 21 19 17 17 17 14 11 11 8 10 12 13 15 15 15 16 17 16 12 8 9 10 10 9 11
5 2 3 4 3 2 2 2 3 4 1 6 3 3 8 3 12 19 22 22 21 16 15 13 13 8 7 8 11 12 15 17 16 17 17 17 15 15 15 12 10 12 10 10
3 5 4 4 4 2 3 4 3 4 2 5 4 5 5 2 19 20 20 20 19 17 14 12 13 9 7 9 10 11 13 16 14 16 17 17 19 11 11 12 9 10 10 11
1 4 3 3 3 2 2 4 4 3 2 3 3 6 4 12 23 27 25 22 22 19 16 14 13 9 7 7 8 9 11 13 13 15 15 14 14 15 13 13 10 10 13 12
0 3 3 3 5 8 4 3 2 2 5 5 4 2 9 25 28 29 29 28 26 22 15 11 9 9 7 6 7 9 12 13 15 14 12 10 12 13 13 12 14 15 15 17
2 2 4 3 2 2 1 2 4 2 0 2 5 4 5 19 20 20 22 23 24 19 9 6 5 5 6 6 7 8 9 11 9 10 10 11 10 11 13 13 14 14 16 17
3 1 2 3 5 4 4 3 3 3 3 2 2 5 10 20 21 17 21 22 19 17 11 5 3 4 3 3 4 4 2 3 5 5 6 9 10 12 12 8 10 13 18 18
1 1 3 7 3 1 2 4 3 1 2 2 3 6 14 18 21 22 22 22 19 18 17 14 9 5 2 4 3 6 6 3 5 6 7 9 11 10 11 8 6 8 12 15
2 2 2 3 2 3 4 7 5 2 2 2 2 10 17 20 20 22 23 22 19 20 19 14 14 12 11 4 0 4 12 15 18 16 10 14 14 10 7 7 10 11 9 10
3 2 2 0 3 3 2 4 7 4 1 3 5 7 11 16 16 18 16 23 22 21 21 16 13 11 14 11 11 8 12 12 12 16 14 9 4 6 7 3 10 9 7 6
1 4 4 3 5 1 4 5 4 3 2 3 6 5 3 12 13 17 19 20 20 21 18 17 20 20 18 19 17 17 16 15 17 17 13 13 16 15 12 13 12 13 11 10
1 4 2 3 0 4 5 5 2 2 2 3 2 3 3 10 13 15 16 16 17 19 20 21 20 18 18 18 18 17 16 17 18 16 15 16 15 15 14 11 13 13 11 11
1 2 2 2 2 2 4 2 4 4 5 4 4 4 7 6 5 8 13 13 14 15 17 17 15 16 17 17 18 17 18 18 17 17 17 16 16 16 15 15 14 12 8 9
1 2 1 1 2 4 2 5 5 5 4 5 3 1 4 5 3 3 12 12 11 12 11 11 13 13 15 17 15 16 18 16 17 17 16 15 14 14 14 13 12 10 12 12
3 4 2 0 0 4 5 4 3 2 4 6 3 3 2 1 3 3 6 7 8 9 9 10 9 9 15 14 13 17 15 15 16 13 13 13 13 13 13 12 12 10 9 10
1 1 3 2 3 7 5 5 4 2 5 4 4 2 2 3 3 1 3 6 6 5 8 8 10 11 11 11 13 15 14 16 10 12 13 13 13 13 10 10 8 7 8 9
6 4 4 2 2 5 6 5 6 4 2 5 4 4 4 5 5 4 3 2 5 6 7 8 6 9 10 10 11 12 12 8 9 9 11 12 12 9 8 9 9 9 8 9
3 6 3 8 5 3 6 2 3 5 5 5 5 5 6 5 4 3 2 1 3 3 4 4 6 7 8 8 7 9 6 7 7 9 9 7 8 8 8 8 8 7 8 6
4 3 3 2 3 8 8 5 5 6 6 6 5 7 7 5 5 4 3 2 1 1 3 3 6 7 6 5 6 5 5 6 6 7 8 7 7 7 8 6 6 6 7 6
5 6 5 6 8 4 8 9 7 6 5 6 5 7 7 6 6 6 5 4 3 2 1 2 4 4 5 5 7 7 7 6 7 7 6 6 5 8 7 6 7 5 5 7
6 8 6 6 7 5 4 8 9 10 9 8 9 6 6 7 7 5 5 4 3 3 2 2 3 3 3 5 5 4 5 6 5 4 4 4 4 4 4 4 4 9 10 11
Wind_Direction
19 64 210 221 205 119 112 226 266 268 272 300 265 276 280 284 276 268 265 273 275 272 272 272 268 251 225 224 220 217 225 218 208 208 210 217 213 200 195 193 202 188 186 182
20 264 239 199 155 197 268 287 291 285 271 220 283 285 282 286 275 245 250 263 267 275 279 277 271 256 224 220 218 220 217 215 212 208 204 183 184 213 213 196 175 183 185 185
171 200 49 115 163 218 234 235 243 257 312 267 298 292 317 287 284 185 260 263 282 278 280 285 280 267 223 221 213 215 217 213 211 207 196 193 168 91 177 201 189 195 189 188
243 263 219 296 248 181 274 222 248 263 349 298 60 292 299 276 301 320 321 324 310 303 291 278 272 268 238 218 218 216 217 213 213 203 205 207 211 198 192 201 201 195 198 191
255 198 108 237 231 147 233 196 233 276 239 303 313 244 265 286 274 324 329 321 314 304 298 294 260 255 249 220 211 214 211 215 213 205 206 206 208 203 189 200 202 196 198 206
242 324 220 215 236 207 264 301 330 292 302 259 226 180 282 278 323 325 322 319 310 308 302 299 265 261 252 210 206 215 221 217 213 207 206 206 205 199 193 191 197 205 194 201
335 236 275 204 262 83 107 44 334 353 0 226 239 97 251 287 332 325 320 318 312 304 298 296 291 274 253 235 213 210 213 220 211 205 200 203 204 200 199 193 196 203 205 199
13 344 200 176 204 261 195 153 171 248 244 278 194 234 267 220 333 326 321 316 315 309 299 284 279 262 248 248 237 216 205 216 209 203 203 204 198 198 203 204 197 208 208 206
125 287 288 204 241 191 233 222 192 253 225 271 240 293 325 327 333 333 333 329 321 312 301 287 272 249 247 243 227 218 212 214 209 207 202 193 196 192 195 198 201 204 211 212
71 304 244 276 246 197 221 315 241 222 321 299 299 305 317 339 335 337 336 331 322 313 296 278 251 252 251 239 232 213 212 217 206 202 207 201 197 197 196 198 205 211 219 214
196 222 305 257 11 356 213 276 229 319 234 311 316 291 304 333 330 329 326 325 319 330 345 304 282 258 253 242 227 223 212 213 215 199 200 201 200 199 201 206 211 209 215 210
223 288 305 253 232 244 207 263 245 132 281 268 237 281 2 338 335 341 336 335 340 349 10 3 2 320 355 20 342 321 276 203 207 218 199 200 209 205 198 196 204 211 213 205
206 9 357 339 342 270 17 302 292 356 64 21 353 301 332 338 341 346 346 345 350 5 7 7 8 9 298 267 278 317 310 320 242 262 241 207 194 180 190 188 189 175 198 167
273 29 149 163 213 276 321 329 4 93 71 309 292 302 336 339 345 344 346 350 359 7 6 15 28 13 7 297 216 349 296 283 271 240 233 233 197 180 176 191 186 183 172 156
141 97 20 82 273 322 286 313 353 36 321 102 289 310 320 335 345 345 345 357 4 2 5 16 23 29 31 34 70 84 57 63 62 97 79 45 70 140 112 65 130 108 109 104
311 165 165 244 241 110 308 329 331 337 345 293 292 295 271 321 334 357 2 1 358 359 6 19 26 27 25 29 31 38 41 41 51 54 55 54 72 76 68 66 76 79 73 70
42 139 131 265 46 292 308 234 271 282 248 261 325 294 342 314 338 1 356 359 4 2 9 12 19 25 30 30 31 34 39 43 43 46 46 47 52 56 54 62 68 71 70 71
154 113 139 269 5 300 247 213 199 250 249 233 270 301 290 268 318 3 359 0 4 7 10 11 17 24 27 33 37 40 38 42 44 44 44 44 47 51 50 51 49 49 58 77
129 117 268 185 196 284 266 216 204 195 276 200 221 269 287 290 330 346 4 5 4 6 5 7 10 16 26 33 35 47 45 42 42 36 40 43 44 48 50 50 49 49 64 53
45 81 130 62 148 216 222 221 160 94 289 184 189 167 355 60 25 295 343 349 357 9 14 15 13 32 38 21 30 47 41 41 42 38 38 35 40 50 49 45 41 42 46 47
279 293 211 232 255 286 229 169 132 117 239 159 165 160 150 148 196 203 339 12 6 4 6 4 31 39 28 32 44 51 48 46 31 33 39 36 33 39 39 46 44 56 63 61
189 167 214 131 245 300 169 92 168 213 86 149 157 168 128 139 162 160 110 40 35 29 11 12 35 43 26 28 40 46 41 19 27 30 39 40 34 34 36 48 44 44 46 51
258 194 195 186 215 220 215 244 202 167 157 185 173 183 161 171 200 191 181 91 60 48 48 19 46 46 29 28 27 52 8 24 27 47 46 44 47 34 37 51 42 40 40 43
250 171 228 346 236 220 222 226 240 192 188 174 185 169 175 177 182 205 202 205 154 60 42 20 48 51 40 18 54 44 27 51 58 55 45 36 41 42 46 38 42 44 41 33
210 142 203 258 267 304 247 218 191 200 189 159 156 173 186 175 196 191 195 192 198 165 124 87 78 71 41 29 37 23 16 34 51 40 30 31 43 36 37 46 38 36 24 36
188 189 174 223 210 169 220 208 174 173 185 183 164 168 194 193 191 184 194 195 186 181 153 83 61 63 49 49 48 25 21 47 63 58 32 39 43 30 38 41 18 26 35 44